Weather History for Danville, IL

Change the Weather History Date:

Monday, December 17, 2012

  Actual Average (KLAF) Record (KLAF)
Temperature  
Mean Temperature 38 °F 30 °F  
Max Temperature 41 °F 37 °F 58 °F (1984)
Min Temperature 34 °F 22 °F 1 °F (1972)
Degree Days  
Heating Degree Days 28 35  
Month to date heating degree days 555  
Since 1 July heating degree days 1656  
Cooling Degree Days 0 0  
Month to date cooling degree days 0  
Year to date cooling degree days 983  
Moisture  
Dew Point 36 °F    
Average Humidity 92    
Maximum Humidity 97    
Minimum Humidity 86    
Precipitation  
Precipitation 0.10 in 0.07 in 0.74 in (1957)
Month to date precipitation 1.47  
Year to date precipitation 35.54  
Sea Level Pressure  
Sea Level Pressure 29.68 in    
Wind  
Wind Speed 5 mph (NNW)    
Max Wind Speed 10 mph    
Max Gust Speed -    
Visibility 4 miles    
Events Rain , Snow    
T = Trace of Precipitation, MM = Missing Value Source: NWS Daily Summary

Daily Weather History Graph

Daily Weather History Graph

Search for Another Location

Airport:

Trip Planner

Search our weather history database for the weather conditions in past years. The results will help you decide how hot, cold, wet, or windy it might be!

Date:

Astronomy

Dec. 17, 2012 Rise Set
Actual Time 7:07 AM CST 4:26 PM CST
Civil Twilight 6:36 AM CST 4:56 PM CST
Nautical Twilight 6:02 AM CST 5:31 PM CST
Astronomical Twilight 5:29 AM CST 6:04 PM CST
Moon 10:15 AM CST (12/17) 9:47 PM CST (12/17)
Length of Visible Light 10h 20m
Length of Day
9h 18m
Waxing Crescent, 25% of the Moon is Illuminated
Dec 17
Waxing Crescent
Dec 19
First Quarter
Dec 28
Full
Jan 4
Last Quarter
Jan 11
New

Hourly Weather History & Observations

Time (CST) Temp. Windchill Dew Point Humidity Pressure Visibility Wind Dir Wind Speed Gust Speed Precip Events Conditions
12:15 AM 40.1 °F 38.0 °F 37.4 °F 90% 29.72 in 7.0 mi NW 3.5 mph - N/A   Overcast
12:35 AM 41.0 °F 37.1 °F 37.4 °F 87% 29.72 in 7.0 mi NW 5.8 mph - N/A   Overcast
12:55 AM 39.9 °F 37.8 °F 36.5 °F 88% 29.72 in 7.0 mi NW 3.5 mph - N/A   Overcast
1:15 AM 39.7 °F 37.6 °F 36.0 °F 86% 29.72 in 10.0 mi NW 3.5 mph - N/A   Overcast
1:35 AM 39.6 °F 34.7 °F 36.5 °F 89% 29.72 in 7.0 mi WNW 6.9 mph - N/A   Overcast
1:55 AM 39.2 °F 35.0 °F 36.0 °F 88% 29.73 in 7.0 mi NW 5.8 mph - N/A   Overcast
2:15 AM 39.2 °F 35.9 °F 36.0 °F 88% 29.73 in 7.0 mi NW 4.6 mph - N/A   Overcast
2:35 AM 38.8 °F 35.4 °F 36.1 °F 90% 29.72 in 7.0 mi NW 4.6 mph - N/A   Overcast
2:55 AM 38.8 °F - 36.1 °F 90% 29.72 in 7.0 mi Calm Calm - N/A   Overcast
3:15 AM 38.8 °F - 35.8 °F 89% 29.73 in 7.0 mi Calm Calm - N/A   Overcast
3:35 AM 39.2 °F 37.0 °F 35.6 °F 87% 29.72 in 7.0 mi NNW 3.5 mph - N/A   Overcast
3:55 AM 38.5 °F - 35.6 °F 89% 29.71 in 7.0 mi Calm Calm - N/A   Overcast
4:15 AM 38.5 °F - 35.6 °F 89% 29.71 in 7.0 mi Calm Calm - N/A   Overcast
4:35 AM 38.3 °F 34.8 °F 35.8 °F 91% 29.70 in 5.0 mi North 4.6 mph - N/A   Overcast
4:55 AM 38.3 °F 35.9 °F 35.8 °F 91% 29.70 in 5.0 mi North 3.5 mph - N/A   Overcast
5:15 AM 38.1 °F 33.7 °F 35.6 °F 91% 29.70 in 5.0 mi North 5.8 mph - N/A   Overcast
5:35 AM 37.8 °F 33.3 °F 35.4 °F 91% 29.70 in 5.0 mi NNE 5.8 mph - N/A   Overcast
5:55 AM 37.6 °F 35.1 °F 35.4 °F 92% 29.70 in 5.0 mi NE 3.5 mph - N/A   Overcast
6:15 AM 37.6 °F 33.1 °F 35.4 °F 92% 29.70 in 5.0 mi NNE 5.8 mph - N/A   Overcast
6:35 AM 37.4 °F 32.1 °F 35.1 °F 91% 29.69 in 5.0 mi North 6.9 mph - N/A   Overcast
6:55 AM 37.4 °F 32.8 °F 35.1 °F 91% 29.69 in 5.0 mi NNE 5.8 mph - N/A   Overcast
7:15 AM 37.4 °F 34.9 °F 34.9 °F 91% 29.70 in 5.0 mi NE 3.5 mph - N/A   Overcast
7:35 AM 37.4 °F - 34.9 °F 91% 29.70 in 4.0 mi Calm Calm - N/A   Overcast
7:55 AM 37.6 °F - 35.1 °F 91% 29.70 in 4.0 mi Calm Calm - N/A   Overcast
8:15 AM 37.6 °F 35.1 °F 35.1 °F 91% 29.70 in 4.0 mi North 3.5 mph - N/A   Overcast
8:35 AM 37.8 °F 34.2 °F 35.4 °F 91% 29.69 in 4.0 mi North 4.6 mph - N/A   Overcast
8:55 AM 37.8 °F 33.3 °F 35.6 °F 92% 29.69 in 4.0 mi North 5.8 mph - N/A   Overcast
9:15 AM 37.8 °F 33.3 °F 35.6 °F 92% 29.69 in 3.0 mi North 5.8 mph - N/A   Overcast
9:35 AM 37.8 °F 33.3 °F 35.6 °F 92% 29.69 in 4.0 mi North 5.8 mph - N/A   Overcast
9:55 AM 38.3 °F 34.8 °F 36.0 °F 91% 29.70 in 3.0 mi NNW 4.6 mph - N/A   Overcast
10:15 AM 38.1 °F 33.7 °F 36.0 °F 92% 29.68 in 2.5 mi North 5.8 mph - N/A   Overcast
10:35 AM 38.3 °F 33.9 °F 36.3 °F 93% 29.68 in 3.0 mi North 5.8 mph - N/A   Overcast
10:55 AM 38.3 °F 33.2 °F 36.0 °F 91% 29.67 in 3.0 mi NNE 6.9 mph - N/A   Overcast
11:15 AM 38.5 °F 34.1 °F 36.5 °F 93% 29.66 in 3.0 mi North 5.8 mph - N/A   Overcast
11:35 AM 38.5 °F 34.1 °F 36.5 °F 93% 29.66 in 3.0 mi North 5.8 mph - N/A   Overcast
11:55 AM 38.3 °F 33.9 °F 36.5 °F 93% 29.65 in 3.0 mi North 5.8 mph - N/A   Overcast
12:15 PM 38.3 °F 33.2 °F 36.5 °F 93% 29.64 in 2.5 mi North 6.9 mph - N/A Rain Light Rain
12:35 PM 38.1 °F 32.9 °F 36.5 °F 94% 29.63 in 2.5 mi NNE 6.9 mph - N/A Rain Rain
12:55 PM 38.3 °F 33.2 °F 36.7 °F 94% 29.62 in 2.5 mi North 6.9 mph - 0.01 in Rain Rain
1:15 PM 38.3 °F 31.9 °F 36.7 °F 94% 29.62 in 3.0 mi North 9.2 mph - 0.02 in Rain Rain
1:35 PM 38.3 °F 31.9 °F 36.7 °F 94% 29.61 in 3.0 mi NNW 9.2 mph - 0.02 in Rain Light Rain
1:55 PM 38.3 °F 31.9 °F 36.9 °F 95% 29.61 in 2.5 mi North 9.2 mph - 0.03 in Rain Light Rain
2:15 PM 37.9 °F 30.9 °F 36.5 °F 95% 29.60 in 2.5 mi North 10.4 mph - N/A Rain Light Rain
2:35 PM 38.3 °F 33.2 °F 36.7 °F 94% 29.60 in 3.0 mi North 6.9 mph - N/A   Overcast
2:55 PM 38.3 °F 33.2 °F 36.5 °F 93% 29.61 in 3.0 mi North 6.9 mph - N/A   Overcast
3:15 PM 38.3 °F 32.5 °F 36.1 °F 92% 29.61 in 3.0 mi North 8.1 mph - N/A   Overcast
3:35 PM 38.1 °F 32.9 °F 36.3 °F 93% 29.62 in 3.0 mi North 6.9 mph - N/A   Overcast
3:55 PM 37.9 °F 32.7 °F 35.8 °F 92% 29.62 in 4.0 mi NNW 6.9 mph - N/A   Overcast
6:15 PM 37.4 °F 32.1 °F 35.2 °F 92% 29.64 in 5.0 mi NNW 6.9 mph - N/A   Overcast
6:35 PM 37.4 °F 32.1 °F 35.2 °F 92% 29.65 in 5.0 mi NNW 6.9 mph - N/A   Overcast
6:55 PM 37.0 °F 32.4 °F 35.2 °F 93% 29.66 in 5.0 mi NW 5.8 mph - N/A   Light Drizzle
7:15 PM 36.9 °F 31.4 °F 35.1 °F 93% 29.66 in 5.0 mi NW 6.9 mph - N/A Rain Light Rain
7:35 PM 36.5 °F 31.8 °F 34.7 °F 93% 29.67 in 5.0 mi NW 5.8 mph - N/A   Light Drizzle
7:55 PM 36.1 °F 30.6 °F 34.7 °F 94% 29.67 in 4.0 mi NW 6.9 mph - N/A   Mostly Cloudy
8:15 PM 36.1 °F 30.6 °F 34.7 °F 94% 29.68 in 4.0 mi WNW 6.9 mph - N/A Rain Light Rain
8:35 PM 36.0 °F 29.6 °F 34.7 °F 95% 29.68 in 4.0 mi NW 8.1 mph - N/A Rain Rain
8:55 PM 35.6 °F 29.9 °F 34.2 °F 94% 29.68 in 3.0 mi WNW 6.9 mph - 0.01 in Rain Light Rain
9:15 PM 34.9 °F 28.3 °F 33.8 °F 96% 29.69 in 3.0 mi WNW 8.1 mph - N/A Rain Light Rain
9:35 PM 34.2 °F 28.2 °F 33.1 °F 96% 29.69 in 2.5 mi NW 6.9 mph - 0.01 in Snow Light Snow
9:55 PM 34.0 °F 28.8 °F 33.3 °F 97% 29.70 in 2.5 mi NW 5.8 mph - 0.03 in   Overcast
10:15 PM 34.0 °F 28.8 °F 33.3 °F 97% 29.70 in 2.0 mi WNW 5.8 mph - N/A   Overcast
10:35 PM 34.2 °F 29.0 °F 33.4 °F 97% 29.71 in 2.5 mi NW 5.8 mph - 0.01 in Rain Light Rain
10:55 PM 34.7 °F 28.8 °F 33.8 °F 97% 29.71 in 3.0 mi NW 6.9 mph - 0.02 in Rain Light Rain
11:15 PM 35.1 °F 31.0 °F 34.3 °F 97% 29.71 in 3.0 mi WNW 4.6 mph - N/A Rain Light Rain
11:35 PM 35.1 °F 32.2 °F 34.2 °F 97% 29.71 in 3.0 mi West 3.5 mph - N/A   Overcast
11:55 PM 35.4 °F 31.5 °F 34.5 °F 97% 29.71 in 3.0 mi WNW 4.6 mph - N/A   Overcast